Showing default

ACTS, 22796

Orbit data source: Space-Track

ACTS, 22796 is a payload satellite owned by NASA LeRC (US) in GEO that was launched on Sun, 12 Sep 1993 UTC via an SPACE SHUTTLE launch vehicle from the Air Force Eastern Test Range (AFETR). Payload-class satellites include a variety of spacecraft equipped with specific instruments for various scientific and technological missions. These include communications satellites like Starlink; space stations such as the ISS; scientific satellites like the Hubble; Earth observation satellites from companies like Planet Labs, Umbra, and HawkEye 360; GPS; miniature CubeSats for education and research; and military/defense satellites.

Loading next visibility...
Identifier
22796, 1993-058B
Orbit
GEO
Country
Flag of USUS
Related business
Manufacturer
MM/East Windsor
Mission
Non-operational Civil Communications
Bus & Motor
AS4000, Unknown motor
Mass
2,770 kg wet, ~1,488 kg dry
Launch date (UTC)
1993-09-12 (32 years ago)
Launch vehicle
SPACE SHUTTLE
Launch site
Air Force Eastern Test Range (AFETR)
Object type
Payload
Rocket body
Debris
Shape & HBR
Hex Poly + 2 Pan, 1.1 m
Radar Cross Section
4.512 m², Large (>1 m²)

Expand to show TLE details & history
Last TLE update: 1 day ago

TLE from 1 day ago
0 ACTS
1 22796U 93058B   25350.03620084 -.00000101  00000-0  00000-0 0  9992
2 22796  14.5812 356.9762 0047859  77.4483 277.9753  1.00271314125066
Epoch: 2025-12-16T00:52Z
TLE epoch observation values (Epoch: 2025-12-16T00:52:07.752Z)
Latitude
-1.28781°
Longitude
-105.95142°
Altitude
35,759.422 km
Speed
3.077 km/s
True Right ascension
23h 28m 01s
True Declination
-1° 17' 11"
Sunlit
Object was in daylight at epoch
Visualization orbit readout
Latitude
Unknown
Longitude
Unknown
Altitude
Unknown
Speed
Unknown
Apparent Right ascension
Unknown
Apparent Declination
Unknown
Sunlit
N/A
Visualization observer readout
Local Sidereal Time
08:36:30
Azimuth
Unknown
Elevation
Unknown
Doppler factor
Unknown
Orbital elements
Apogee altitude
35,989.5 km
Perigee altitude
35,585.897 km
Semi-major axis
42,165.835 km
Eccentricity
0.00479
Inclination
14.5812°
RAAN
356.9762°
Arg. of periapsis
77.4483°
True anomaly
277.43174°
Mean anomaly
277.9753°
Eccentric anomaly
277.70356°
Mean motion
0.25067 °/min
Orbital period
1,436.15 mins
BSTAR
0
Loading maneuver chart data...
Computing Atmospheric mass density...
Loading historical data...
Loading historical data...
Loading historical data...
Loading historical data...
Loading historical data...
Loading historical data...
Loading historical data...

Documentation

Showing up to 5 results
|